Location: Hamayl? Da??
(36.7028°N, 30.1716°E)
Time: 12:17:08
(UTC+00:00)

Cosmos 1821 Rocket - Pass Details

Date: 04 August 2024
Orbit: 943 x 1005 km, 82.9° (Epoch: 11 September)

Event Time Altitude Azimuth Distance (km) Brightness Sun altitude
Rises 18:04:56 0° 184° (S) 3,698 6.7 -12.0°
Reaches altitude 10° 18:07:26 10° 183° (S) 2,758 6.1 -12.4°
Maximum altitude 18:13:48 87° 94° (E) 1,010 4.0 -13.5°
Drops below altitude 10° 18:20:14 10° 7° (N) 2,785 6.7 -14.6°
Sets 18:22:46 0° 8° (N) 3,736 7.4 -15.0°
